Date String (YYYY-MM-DD hh:mm:ss) UTC,Instrument flags,absolute air pressure of the measurement (hPa),sample flow rate (lpm),inlet stack bypass flow (lpm),air temperature of the measurement (°C),ambient temperature measured by the external sensor (°C),aerosol sample conditioner tube jacket temperature (°C),OPC LED temperature (°C),internal box temperature (°C),relative humidity of the measurement (%),span deviation,mass concentration of particles derived from Lorenz-Mie calculation of OPC scattering (μg/m³),mass concentration of particles derived from Lorenz-Mie calculation of OPC scattering (μg/m³),mass concentration of particles derived from Lorenz-Mie calculation of OPC scattering (μg/m³)
DateTimeUTC,F1_M11,P_M11,Q1_M11,Q2_M11,T1_M11,T2_M11,T3_M11,T4_M11,T5_M11,U1_M11,ZSPAN_M11,X0_M11,X2_M11,X1_M11
2023-08-15 11:00:00,SystemResetWarning,0837.7,5.00,000.00,030.0,028.7,000.0,038.6,031.5,19.8,0000.0,0013.55,0005.74,0004.90
2023-08-15 11:01:00,SystemResetWarning,0837.8,5.00,000.00,030.0,028.7,000.0,038.6,031.5,20.1,0000.0,0013.34,0005.74,0004.90
2023-08-15 11:02:00,SystemResetWarning,0837.8,5.02,000.00,030.0,028.8,000.0,038.6,031.6,20.2,0000.1,0013.52,0005.74,0004.90
2023-08-15 11:03:00,SystemResetWarning,0837.7,5.00,000.00,030.0,028.8,000.0,038.6,031.6,20.1,0000.0,0013.58,0005.78,0004.90
2023-08-15 11:04:00,SystemResetWarning,0837.8,4.99,000.00,030.0,028.8,000.0,038.6,031.6,20.2,0000.0,0013.67,0005.75,0004.90
2023-08-15 11:05:00,SystemResetWarning,0837.8,5.00,000.00,030.0,028.8,000.0,038.6,031.6,20.5,0000.0,0013.22,0005.76,0004.89
2023-08-15 11:06:00,SystemResetWarning,0837.8,4.99,000.00,030.1,028.8,000.0,038.6,031.6,20.6,0000.0,0012.88,0005.81,0004.89
2023-08-15 11:07:00,SystemResetWarning,0837.8,5.00,000.00,030.1,028.8,000.0,038.7,031.6,20.7,0000.0,0012.19,0005.82,0004.90
2023-08-15 11:08:00,SystemResetWarning,0837.8,5.01,000.00,030.1,028.8,000.0,038.7,031.6,20.7,0000.1,0011.77,0005.76,0004.89
2023-08-15 11:09:00,SystemResetWarning,0837.8,5.00,000.00,030.1,028.8,000.0,038.7,031.6,20.7,0000.6,0013.27,0005.76,0004.89
2023-08-15 11:10:00,SystemResetWarning,0837.8,5.00,000.00,030.1,028.8,000.0,038.7,031.6,20.7,0000.3,0013.71,0005.78,0004.89
2023-08-15 11:11:00,SystemResetWarning,0837.8,5.01,000.00,030.1,028.8,000.0,038.7,031.6,20.7,-000.4,0013.78,0005.72,0004.88
2023-08-15 11:12:00,SystemResetWarning,0837.8,5.00,000.00,030.1,028.7,000.0,038.7,031.6,20.7,-000.4,0014.74,0005.76,0004.88
2023-08-15 11:13:00,SystemResetWarning,0837.8,5.00,000.00,030.1,028.7,000.0,038.7,031.6,20.8,-000.6,0014.61,0005.78,0004.88
2023-08-15 11:14:00,SystemResetWarning,0837.8,5.01,000.00,030.1,028.8,000.0,038.7,031.6,20.8,-000.9,0014.42,0005.75,0004.89
2023-08-15 11:15:00,SystemResetWarning,0837.8,5.00,000.00,030.1,028.8,000.0,038.7,031.6,20.7,-001.0,0014.03,0005.75,0004.88
2023-08-15 11:16:00,SystemResetWarning,0837.8,5.00,000.00,030.1,028.8,000.0,038.7,031.6,20.8,-000.8,0014.00,0005.74,0004.89
2023-08-15 11:17:00,SystemResetWarning,0837.8,4.99,000.00,030.1,028.7,000.0,038.7,031.6,20.9,-001.3,0013.80,0005.67,0004.90
2023-08-15 11:18:00,SystemResetWarning,0837.8,4.99,000.00,030.1,028.7,000.0,038.7,031.6,20.9,-000.5,0014.19,0005.67,0004.90
2023-08-15 11:19:00,SystemResetWarning,0837.8,5.00,000.00,030.1,028.8,000.0,038.7,031.6,20.9,-000.4,0015.01,0005.77,0004.91
2023-08-15 11:20:00,SystemResetWarning,0837.8,5.00,000.00,030.1,028.8,000.0,038.7,031.7,20.9,0000.0,0014.31,0005.79,0004.92
2023-08-15 11:21:00,SystemResetWarning,0837.8,5.00,000.00,030.1,028.8,000.0,038.7,031.7,20.9,0000.8,0013.91,0005.79,0004.92
2023-08-15 11:22:00,SystemResetWarning,0837.8,5.00,000.00,030.1,028.8,000.0,038.8,031.7,20.8,0001.2,0013.73,0005.84,0004.93
2023-08-15 11:23:00,SystemResetWarning,0837.8,5.00,000.00,030.1,028.8,000.0,038.8,031.7,20.7,0000.5,0013.77,0005.81,0004.93
2023-08-15 11:24:00,SystemResetWarning,0837.8,5.00,000.00,030.1,028.8,000.0,038.8,031.7,20.5,0001.0,0014.75,0005.78,0004.91
2023-08-15 11:25:00,SystemResetWarning,0837.8,5.00,000.00,030.2,028.8,000.0,038.8,031.7,20.4,0001.3,0015.21,0005.84,0004.91
2023-08-15 11:26:00,SystemResetWarning,0837.8,5.00,000.00,030.2,028.8,000.0,038.8,031.7,20.3,0001.6,0016.17,0005.92,0004.90
2023-08-15 11:27:00,SystemResetWarning,0837.8,5.00,000.00,030.2,028.8,000.0,038.8,031.7,20.2,0001.4,0015.90,0005.91,0004.89
2023-08-15 11:28:00,SystemResetWarning,0837.8,5.00,000.00,030.2,028.8,000.0,038.8,031.7,20.3,0001.7,0015.99,0005.93,0004.89
2023-08-15 11:29:00,SystemResetWarning,0837.8,5.00,000.00,030.2,028.8,000.0,038.8,031.7,20.3,0001.3,0016.58,0005.95,0004.88
2023-08-15 11:30:00,SystemResetWarning,0837.8,5.00,000.00,030.2,028.8,000.0,038.8,031.7,20.4,0001.4,0015.84,0005.91,0004.89
2023-08-15 11:31:00,SystemResetWarning,0837.8,4.99,000.00,030.2,028.8,000.0,038.8,031.7,20.6,0001.4,0014.80,0005.86,0004.90
2023-08-15 11:32:00,SystemResetWarning,0837.8,5.00,000.00,030.2,028.8,000.0,038.8,031.7,20.5,0001.0,0014.65,0005.82,0004.90
2023-08-15 11:33:00,SystemResetWarning,0837.8,4.99,000.00,030.2,028.8,000.0,038.8,031.7,20.5,0001.1,0014.59,0005.78,0004.90
2023-08-15 11:34:00,SystemResetWarning,0837.8,4.99,000.00,030.2,028.8,000.0,038.8,031.7,20.4,0001.4,0013.76,0005.76,0004.91
2023-08-15 11:35:00,SystemResetWarning,0837.8,5.00,000.00,030.2,028.8,000.0,038.8,031.7,20.3,0001.2,0012.66,0005.77,0004.92
2023-08-15 11:36:00,SystemResetWarning,0837.9,5.00,000.00,030.2,028.8,000.0,038.8,031.7,20.3,0001.0,0012.41,0005.71,0004.93
2023-08-15 11:37:00,SystemResetWarning,0837.9,5.00,000.00,030.2,028.8,000.0,038.8,031.7,20.4,0000.8,0011.60,0005.62,0004.94
2023-08-15 11:38:00,SystemResetWarning,0837.9,5.00,000.00,030.2,028.8,000.0,038.8,031.7,20.5,0001.0,0011.58,0005.60,0004.94
2023-08-15 11:39:00,SystemResetWarning,0838.0,5.01,000.00,030.2,028.8,000.0,038.8,031.7,20.7,0000.7,0011.28,0005.57,0004.95
2023-08-15 11:40:00,SystemResetWarning,0838.0,5.01,000.00,030.2,028.8,000.0,038.8,031.7,20.6,0000.7,0010.30,0005.56,0004.97
2023-08-15 11:41:00,SystemResetWarning,0838.0,5.01,000.00,030.2,028.8,000.0,038.8,031.7,20.6,0000.6,0011.25,0005.55,0004.99
2023-08-15 11:42:00,SystemResetWarning,0838.0,4.99,000.00,030.2,028.8,000.0,038.8,031.7,20.9,0000.8,0011.84,0005.56,0005.00
2023-08-15 11:43:00,SystemResetWarning,0838.0,4.99,000.00,030.2,028.8,000.0,038.8,031.7,21.1,0000.9,0012.12,0005.60,0005.01
2023-08-15 11:44:00,SystemResetWarning,0838.0,5.00,000.00,030.2,027.9,000.0,038.8,031.6,21.1,0001.0,0012.48,0005.65,0005.04
2023-08-15 11:45:00,SystemResetWarning,0838.0,5.00,000.00,030.1,025.9,000.0,038.6,031.3,21.1,0001.3,0012.81,0005.71,0005.06
2023-08-15 11:46:00,SystemResetWarning,0838.0,5.01,000.00,030.0,025.4,000.0,038.5,031.0,21.2,0001.6,0013.48,0005.74,0005.08
2023-08-15 11:47:00,SystemResetWarning,0837.9,5.00,000.00,029.9,025.6,000.0,038.5,030.8,21.4,0001.9,0013.37,0005.74,0005.11
2023-08-15 11:48:00,SystemResetWarning,0837.9,5.00,000.00,029.8,025.9,000.0,038.5,030.8,21.5,0001.7,0013.58,0005.79,0005.13
2023-08-15 11:49:00,SystemResetWarning,0837.8,5.00,000.00,029.7,026.3,000.0,038.5,030.9,21.5,0001.3,0013.26,0005.84,0005.15
2023-08-15 11:50:00,SystemResetWarning,0837.9,5.01,000.00,029.7,026.7,000.0,038.5,031.0,21.6,0001.1,0013.67,0005.90,0005.18
2023-08-15 11:51:00,SystemResetWarning,0837.9,5.00,000.00,029.7,027.0,000.0,038.5,031.0,21.6,0001.1,0014.01,0005.94,0005.19
2023-08-15 11:52:00,SystemResetWarning,0837.9,5.00,000.00,029.7,027.2,000.0,038.4,031.1,21.6,0001.5,0014.22,0005.99,0005.19
2023-08-15 11:53:00,SystemResetWarning,0837.9,5.00,000.00,029.7,027.5,000.0,038.4,031.1,21.5,0001.0,0013.32,0006.01,0005.18
2023-08-15 11:54:00,SystemResetWarning,0838.0,4.99,000.00,029.7,027.6,000.0,038.4,031.1,21.5,0001.3,0013.90,0006.04,0005.18
2023-08-15 11:55:00,SystemResetWarning,0838.0,4.99,000.00,029.7,027.8,000.0,038.4,031.1,21.6,0001.5,0013.98,0006.07,0005.19
2023-08-15 11:56:00,SystemResetWarning,0838.0,5.00,000.00,029.7,027.9,000.0,038.4,031.2,21.6,0001.5,0014.04,0006.05,0005.20
2023-08-15 11:57:00,SystemResetWarning,0837.9,5.00,000.00,029.7,028.0,000.0,038.4,031.2,21.5,0001.1,0013.36,0006.05,0005.21
2023-08-15 11:58:00,SystemResetWarning,0837.9,5.00,000.00,029.7,028.1,000.0,038.4,031.2,21.5,0001.2,0013.12,0006.07,0005.20
2023-08-15 11:59:00,SystemResetWarning,0837.9,5.01,000.00,029.7,028.1,000.0,038.3,031.2,21.5,0001.4,0013.23,0006.09,0005.20
